Location: B�rgermoos
(47.6500°N, 9.0667°E)
Time: 15:10:51
(UTC+00:00)

SJ-11-01 - Pass Details

Date: 18 September 2020
Orbit: 684 x 701 km, 98.0° (Epoch: 24 October)

Event Time Altitude Azimuth Distance (km) Brightness Sun altitude
Rises 18:03:21 0° 156° (SSE) 3,068 7.3 -6.6°
Reaches altitude 10° 18:05:37 10° 154° (SSE) 2,152 6.5 -6.9°
Maximum altitude 18:10:17 66° 73° (ENE) 760 4.3 -7.7°
Drops below altitude 10° 18:14:58 10° 352° (N) 2,157 7.1 -8.5°
Sets 18:17:14 0° 349° (N) 3,076 8.0 -8.9°
